Time,TemperatureF,DewpointF,PressureIn,WindDirection,WindDirectionDegrees,WindSpeedMPH,WindSpeedGustMPH,Humidity,HourlyPrecipIn,Conditions,Clouds,dailyrainin,SoftwareType,DateUTC
2013-01-08 00:02:00,46.4,39.3,0.00,North,0,0.0,0.0,76,0.00,,,-99.99,pyweather 0.1,2013-01-08 08:02:00,
2013-01-08 00:10:00,46.2,39.1,0.00,North,0,0.0,0.0,76,0.00,,,-99.99,pyweather 0.1,2013-01-08 08:10:00,
2013-01-08 00:18:00,46.2,39.1,0.00,North,0,0.0,0.0,76,0.00,,,-99.99,pyweather 0.1,2013-01-08 08:18:00,
2013-01-08 00:26:00,46.2,39.4,0.00,North,0,0.0,0.0,77,0.00,,,-99.99,pyweather 0.1,2013-01-08 08:26:00,
2013-01-08 00:34:00,46.2,39.1,0.00,North,0,0.0,0.0,76,0.00,,,-99.99,pyweather 0.1,2013-01-08 08:34:00,
2013-01-08 00:42:00,46.0,38.9,0.00,North,0,0.0,0.0,76,0.00,,,-99.99,pyweather 0.1,2013-01-08 08:42:00,
2013-01-08 00:50:00,46.0,39.2,0.00,North,0,0.0,0.0,77,0.00,,,-99.99,pyweather 0.1,2013-01-08 08:50:00,
2013-01-08 00:58:00,46.0,39.2,0.00,North,0,0.0,0.0,77,0.00,,,-99.99,pyweather 0.1,2013-01-08 08:58:00,
2013-01-08 01:06:00,46.0,39.6,0.00,North,0,0.0,0.0,78,0.00,,,-99.99,pyweather 0.1,2013-01-08 09:06:00,
2013-01-08 01:14:00,46.0,39.6,0.00,North,0,0.0,0.0,78,0.00,,,-99.99,pyweather 0.1,2013-01-08 09:14:00,
2013-01-08 01:22:00,46.0,39.6,0.00,North,0,0.0,0.0,78,0.00,,,-99.99,pyweather 0.1,2013-01-08 09:22:00,
2013-01-08 01:30:00,46.0,39.9,0.00,North,0,0.0,0.0,79,0.00,,,-99.99,pyweather 0.1,2013-01-08 09:30:00,
2013-01-08 01:38:00,46.0,39.9,0.00,North,0,0.0,0.0,79,0.00,,,-99.99,pyweather 0.1,2013-01-08 09:38:00,
2013-01-08 01:46:00,46.0,39.9,0.00,North,0,0.0,0.0,79,0.00,,,-99.99,pyweather 0.1,2013-01-08 09:46:00,
2013-01-08 01:54:00,46.0,40.2,0.00,North,0,0.0,0.0,80,0.00,,,-99.99,pyweather 0.1,2013-01-08 09:54:00,
2013-01-08 02:02:00,46.0,40.2,0.00,North,0,0.0,0.0,80,0.00,,,-99.99,pyweather 0.1,2013-01-08 10:02:00,
2013-01-08 02:10:00,46.0,40.2,0.00,North,0,0.0,0.0,80,0.00,,,-99.99,pyweather 0.1,2013-01-08 10:10:00,
2013-01-08 02:18:00,46.0,40.2,0.00,North,0,0.0,0.0,80,0.00,,,-99.99,pyweather 0.1,2013-01-08 10:18:00,
2013-01-08 02:26:00,46.0,40.2,0.00,North,0,0.0,0.0,80,0.00,,,-99.99,pyweather 0.1,2013-01-08 10:26:00,
2013-01-08 02:34:00,45.9,39.7,0.00,North,0,0.0,0.0,79,0.00,,,-99.99,pyweather 0.1,2013-01-08 10:34:00,
2013-01-08 02:42:00,45.9,39.7,0.00,North,0,0.0,0.0,79,0.00,,,-99.99,pyweather 0.1,2013-01-08 10:42:00,
2013-01-08 02:50:00,45.9,39.7,0.00,North,0,0.0,0.0,79,0.00,,,-99.99,pyweather 0.1,2013-01-08 10:50:00,
2013-01-08 02:58:00,45.7,39.5,0.00,North,0,0.0,0.0,79,0.00,,,-99.99,pyweather 0.1,2013-01-08 10:58:00,
2013-01-08 03:06:00,45.7,39.5,0.00,North,0,0.0,0.0,79,0.00,,,-99.99,pyweather 0.1,2013-01-08 11:06:00,
2013-01-08 03:14:00,45.7,39.9,0.00,North,0,0.0,0.0,80,0.00,,,-99.99,pyweather 0.1,2013-01-08 11:14:00,
2013-01-08 03:22:00,45.7,39.9,0.00,North,0,0.0,0.0,80,0.00,,,-99.99,pyweather 0.1,2013-01-08 11:22:00,
2013-01-08 03:30:00,45.7,39.9,0.00,North,0,0.0,0.0,80,0.00,,,-99.99,pyweather 0.1,2013-01-08 11:30:00,
2013-01-08 03:38:00,45.7,39.9,0.00,North,0,0.0,0.0,80,0.00,,,-99.99,pyweather 0.1,2013-01-08 11:38:00,
2013-01-08 03:46:00,45.5,39.7,0.00,North,0,0.0,0.0,80,0.00,,,-99.99,pyweather 0.1,2013-01-08 11:46:00,
2013-01-08 03:54:00,45.5,39.7,0.00,North,0,0.0,0.0,80,0.00,,,-99.99,pyweather 0.1,2013-01-08 11:54:00,
2013-01-08 04:02:00,45.3,39.5,0.00,North,0,0.0,0.0,80,0.00,,,-99.99,pyweather 0.1,2013-01-08 12:02:00,
2013-01-08 04:10:00,45.3,39.8,0.00,North,0,0.0,0.0,81,0.00,,,-99.99,pyweather 0.1,2013-01-08 12:10:00,
2013-01-08 04:18:00,45.3,39.8,0.00,North,0,0.0,0.0,81,0.00,,,-99.99,pyweather 0.1,2013-01-08 12:18:00,
2013-01-08 04:26:00,45.3,39.8,0.00,North,0,0.0,0.0,81,0.00,,,-99.99,pyweather 0.1,2013-01-08 12:26:00,
2013-01-08 04:34:00,45.3,39.8,0.00,North,0,0.0,0.0,81,0.00,,,-99.99,pyweather 0.1,2013-01-08 12:34:00,
2013-01-08 04:42:00,45.5,40.0,0.00,North,0,0.0,0.0,81,0.00,,,-99.99,pyweather 0.1,2013-01-08 12:42:00,
2013-01-08 04:50:00,45.3,39.8,0.00,North,0,0.0,0.0,81,0.00,,,-99.99,pyweather 0.1,2013-01-08 12:50:00,
2013-01-08 04:58:00,45.3,40.2,0.00,North,0,0.0,0.0,82,0.00,,,-99.99,pyweather 0.1,2013-01-08 12:58:00,
2013-01-08 05:06:00,45.3,40.2,0.00,North,0,0.0,0.0,82,0.00,,,-99.99,pyweather 0.1,2013-01-08 13:06:00,
2013-01-08 05:14:00,45.3,40.2,0.00,North,0,0.0,0.0,82,0.00,,,-99.99,pyweather 0.1,2013-01-08 13:14:00,
2013-01-08 05:22:00,45.3,40.2,0.00,North,0,0.0,0.0,82,0.00,,,-99.99,pyweather 0.1,2013-01-08 13:22:00,
2013-01-08 05:30:00,45.3,40.2,0.00,North,0,0.0,0.0,82,0.00,,,-99.99,pyweather 0.1,2013-01-08 13:30:00,
2013-01-08 05:38:00,45.1,40.0,0.00,North,0,0.0,0.0,82,0.00,,,-99.99,pyweather 0.1,2013-01-08 13:38:00,
2013-01-08 05:46:00,45.1,40.0,0.00,North,0,0.0,0.0,82,0.00,,,-99.99,pyweather 0.1,2013-01-08 13:46:00,
2013-01-08 05:54:00,45.1,40.0,0.00,North,0,0.0,0.0,82,0.00,,,-99.99,pyweather 0.1,2013-01-08 13:54:00,
2013-01-08 06:02:00,45.1,40.3,0.00,North,0,0.0,0.0,83,0.00,,,-99.99,pyweather 0.1,2013-01-08 14:02:00,
2013-01-08 06:10:00,45.1,40.3,0.00,North,0,0.0,0.0,83,0.00,,,-99.99,pyweather 0.1,2013-01-08 14:10:00,
2013-01-08 06:18:00,45.0,40.1,0.00,North,0,0.0,0.0,83,0.00,,,-99.99,pyweather 0.1,2013-01-08 14:18:00,
2013-01-08 06:26:00,44.8,40.2,0.00,North,0,0.0,0.0,84,0.00,,,-99.99,pyweather 0.1,2013-01-08 14:26:00,
2013-01-08 06:35:00,44.6,40.1,0.00,North,0,0.0,0.0,84,0.00,,,-99.99,pyweather 0.1,2013-01-08 14:35:00,
2013-01-08 06:43:00,44.4,40.2,0.00,North,0,0.0,0.0,85,0.00,,,-99.99,pyweather 0.1,2013-01-08 14:43:00,
2013-01-08 06:51:00,44.2,40.0,0.00,North,0,0.0,0.0,85,0.00,,,-99.99,pyweather 0.1,2013-01-08 14:51:00,
2013-01-08 06:59:00,44.1,39.8,0.00,North,0,0.0,0.0,85,0.00,,,-99.99,pyweather 0.1,2013-01-08 14:59:00,
2013-01-08 07:07:00,43.7,39.5,0.00,North,0,0.0,0.0,85,0.00,,,-99.99,pyweather 0.1,2013-01-08 15:07:00,
2013-01-08 07:15:00,43.7,39.5,0.00,North,0,0.0,0.0,85,0.00,,,-99.99,pyweather 0.1,2013-01-08 15:15:00,
2013-01-08 07:23:00,43.5,39.6,0.00,North,0,0.0,0.0,86,0.00,,,-99.99,pyweather 0.1,2013-01-08 15:23:00,
2013-01-08 07:31:00,43.3,39.4,0.00,North,0,0.0,0.0,86,0.04,,,-99.99,pyweather 0.1,2013-01-08 15:31:00,
2013-01-08 07:39:00,43.2,39.3,0.00,North,0,0.0,0.0,86,0.04,,,-99.99,pyweather 0.1,2013-01-08 15:39:00,
2013-01-08 07:47:00,43.0,39.1,0.00,North,0,0.0,0.0,86,0.04,,,-99.99,pyweather 0.1,2013-01-08 15:47:00,
2013-01-08 07:55:00,42.8,39.2,0.00,North,0,0.0,0.0,87,0.04,,,-99.99,pyweather 0.1,2013-01-08 15:55:00,
2013-01-08 08:03:00,42.6,39.0,0.00,North,0,0.0,0.0,87,0.04,,,-99.99,pyweather 0.1,2013-01-08 16:03:00,
2013-01-08 08:11:00,42.4,39.1,0.00,North,0,0.0,0.0,88,0.08,,,-99.99,pyweather 0.1,2013-01-08 16:11:00,
2013-01-08 08:19:00,42.4,39.1,0.00,North,0,0.0,0.0,88,0.08,,,-99.99,pyweather 0.1,2013-01-08 16:19:00,
2013-01-08 08:27:00,42.3,39.3,0.00,North,0,0.0,0.0,89,0.04,,,-99.99,pyweather 0.1,2013-01-08 16:27:00,
2013-01-08 08:35:00,42.3,39.3,0.00,North,0,0.0,0.0,89,0.04,,,-99.99,pyweather 0.1,2013-01-08 16:35:00,
2013-01-08 08:43:00,42.3,39.5,0.00,North,0,0.0,0.0,90,0.04,,,-99.99,pyweather 0.1,2013-01-08 16:43:00,
2013-01-08 08:51:00,42.3,39.5,0.00,North,0,0.0,0.0,90,0.04,,,-99.99,pyweather 0.1,2013-01-08 16:51:00,
2013-01-08 08:59:00,42.3,39.5,0.00,North,0,0.0,0.0,90,0.04,,,-99.99,pyweather 0.1,2013-01-08 16:59:00,
2013-01-08 09:07:00,42.3,39.8,0.00,North,0,0.0,0.0,91,0.00,,,-99.99,pyweather 0.1,2013-01-08 17:07:00,
2013-01-08 09:15:00,42.3,39.8,0.00,North,0,0.0,0.0,91,0.04,,,-99.99,pyweather 0.1,2013-01-08 17:15:00,
2013-01-08 09:23:00,42.3,39.8,0.00,North,0,0.0,0.0,91,0.04,,,-99.99,pyweather 0.1,2013-01-08 17:23:00,
2013-01-08 09:32:00,42.3,39.8,0.00,North,0,0.0,0.0,91,0.04,,,-99.99,pyweather 0.1,2013-01-08 17:32:00,
2013-01-08 09:40:00,42.3,39.8,0.00,North,0,0.0,0.0,91,0.04,,,-99.99,pyweather 0.1,2013-01-08 17:40:00,
2013-01-08 09:48:00,42.3,40.1,0.00,North,0,0.0,0.0,92,0.04,,,-99.99,pyweather 0.1,2013-01-08 17:48:00,
2013-01-08 09:56:00,42.1,39.9,0.00,North,0,0.0,0.0,92,0.04,,,-99.99,pyweather 0.1,2013-01-08 17:56:00,
2013-01-08 10:04:00,42.1,39.9,0.00,North,0,0.0,0.0,92,0.04,,,-99.99,pyweather 0.1,2013-01-08 18:04:00,
2013-01-08 10:12:00,42.1,40.2,0.00,North,0,0.0,0.0,93,0.00,,,-99.99,pyweather 0.1,2013-01-08 18:12:00,
2013-01-08 10:20:00,42.3,40.4,0.00,North,0,0.0,0.0,93,0.00,,,-99.99,pyweather 0.1,2013-01-08 18:20:00,
2013-01-08 10:28:00,42.3,40.4,0.00,North,0,0.0,0.0,93,0.00,,,-99.99,pyweather 0.1,2013-01-08 18:28:00,
2013-01-08 10:36:00,42.3,40.4,0.00,North,0,0.0,0.0,93,0.00,,,-99.99,pyweather 0.1,2013-01-08 18:36:00,
2013-01-08 10:44:00,42.3,40.7,0.00,North,0,0.0,0.0,94,0.00,,,-99.99,pyweather 0.1,2013-01-08 18:44:00,
2013-01-08 10:52:00,42.3,40.7,0.00,North,0,0.0,0.0,94,0.00,,,-99.99,pyweather 0.1,2013-01-08 18:52:00,
2013-01-08 11:00:00,42.4,40.8,0.00,North,0,0.0,0.0,94,0.00,,,-99.99,pyweather 0.1,2013-01-08 19:00:00,
2013-01-08 11:08:00,42.4,41.1,0.00,North,0,0.0,0.0,95,0.00,,,-99.99,pyweather 0.1,2013-01-08 19:08:00,
2013-01-08 11:16:00,42.4,41.1,0.00,North,0,0.0,0.0,95,0.04,,,-99.99,pyweather 0.1,2013-01-08 19:16:00,
2013-01-08 11:24:00,42.6,41.6,0.00,North,0,0.0,0.0,96,0.04,,,-99.99,pyweather 0.1,2013-01-08 19:24:00,
2013-01-08 11:32:00,42.8,41.7,0.00,North,0,0.0,0.0,96,0.04,,,-99.99,pyweather 0.1,2013-01-08 19:32:00,
2013-01-08 11:40:00,43.0,41.9,0.00,North,0,0.0,0.0,96,0.04,,,-99.99,pyweather 0.1,2013-01-08 19:40:00,
2013-01-08 11:48:00,43.2,42.1,0.00,North,0,0.0,0.0,96,0.04,,,-99.99,pyweather 0.1,2013-01-08 19:48:00,
2013-01-08 11:56:00,43.3,42.3,0.00,North,0,0.0,0.0,96,0.04,,,-99.99,pyweather 0.1,2013-01-08 19:56:00,
2013-01-08 12:04:00,43.5,42.7,0.00,North,0,0.0,0.0,97,0.04,,,-99.99,pyweather 0.1,2013-01-08 20:04:00,
2013-01-08 12:12:00,43.7,42.9,0.00,North,0,0.0,0.0,97,0.00,,,-99.99,pyweather 0.1,2013-01-08 20:12:00,
2013-01-08 12:20:00,43.7,42.9,0.00,North,0,0.0,0.0,97,0.00,,,-99.99,pyweather 0.1,2013-01-08 20:20:00,
2013-01-08 12:29:00,44.1,43.3,0.00,North,0,0.0,0.0,97,0.00,,,-99.99,pyweather 0.1,2013-01-08 20:29:00,
2013-01-08 12:37:00,44.2,43.4,0.00,North,0,0.0,0.0,97,0.00,,,-99.99,pyweather 0.1,2013-01-08 20:37:00,
2013-01-08 12:45:00,44.6,43.8,0.00,North,0,0.0,0.0,97,0.00,,,-99.99,pyweather 0.1,2013-01-08 20:45:00,
2013-01-08 12:53:00,44.8,44.0,0.00,North,0,0.0,0.0,97,0.00,,,-99.99,pyweather 0.1,2013-01-08 20:53:00,
2013-01-08 13:01:00,45.1,44.3,0.00,North,0,0.0,0.0,97,0.00,,,-99.99,pyweather 0.1,2013-01-08 21:01:00,
2013-01-08 13:09:00,45.3,44.8,0.00,North,0,0.0,0.0,98,0.00,,,-99.99,pyweather 0.1,2013-01-08 21:09:00,
2013-01-08 13:17:00,45.9,45.3,0.00,North,0,0.0,0.0,98,0.00,,,-99.99,pyweather 0.1,2013-01-08 21:17:00,
2013-01-08 13:25:00,46.6,46.0,0.00,North,0,0.0,0.0,98,0.08,,,-99.99,pyweather 0.1,2013-01-08 21:25:00,
2013-01-08 13:33:00,47.3,46.8,0.00,North,0,0.0,0.0,98,0.08,,,-99.99,pyweather 0.1,2013-01-08 21:33:00,
2013-01-08 13:41:00,47.8,47.3,0.00,North,0,0.0,0.0,98,0.08,,,-99.99,pyweather 0.1,2013-01-08 21:41:00,
2013-01-08 13:49:00,48.0,47.5,0.00,North,0,0.0,0.0,98,0.08,,,-99.99,pyweather 0.1,2013-01-08 21:49:00,
2013-01-08 13:57:00,48.2,47.7,0.00,North,0,0.0,0.0,98,0.08,,,-99.99,pyweather 0.1,2013-01-08 21:57:00,
2013-01-08 14:05:00,48.4,47.8,0.00,North,0,0.0,0.0,98,0.08,,,-99.99,pyweather 0.1,2013-01-08 22:05:00,
2013-01-08 14:13:00,48.6,48.0,0.00,North,0,0.0,0.0,98,0.08,,,-99.99,pyweather 0.1,2013-01-08 22:13:00,
2013-01-08 14:21:00,48.7,48.2,0.00,North,0,0.0,0.0,98,0.00,,,-99.99,pyweather 0.1,2013-01-08 22:21:00,
2013-01-08 14:29:00,48.7,48.2,0.00,North,0,0.0,0.0,98,0.00,,,-99.99,pyweather 0.1,2013-01-08 22:29:00,
2013-01-08 14:37:00,48.7,48.2,0.00,North,0,0.0,0.0,98,0.00,,,-99.99,pyweather 0.1,2013-01-08 22:37:00,
2013-01-08 14:45:00,48.9,48.4,0.00,North,0,0.0,0.0,98,0.04,,,-99.99,pyweather 0.1,2013-01-08 22:45:00,
2013-01-08 14:53:00,49.1,48.6,0.00,North,0,0.0,0.0,98,0.04,,,-99.99,pyweather 0.1,2013-01-08 22:53:00,
2013-01-08 15:01:00,49.1,48.6,0.00,North,0,0.0,0.0,98,0.04,,,-99.99,pyweather 0.1,2013-01-08 23:01:00,
2013-01-08 15:09:00,49.3,48.7,0.00,North,0,0.0,0.0,98,0.08,,,-99.99,pyweather 0.1,2013-01-08 23:09:00,
2013-01-08 15:17:00,49.3,48.7,0.00,North,0,0.0,0.0,98,0.08,,,-99.99,pyweather 0.1,2013-01-08 23:17:00,
2013-01-08 15:26:00,49.3,48.7,0.00,North,0,0.0,0.0,98,0.12,,,-99.99,pyweather 0.1,2013-01-08 23:26:00,
2013-01-08 15:34:00,49.5,48.9,0.00,North,0,0.0,0.0,98,0.12,,,-99.99,pyweather 0.1,2013-01-08 23:34:00,
2013-01-08 15:42:00,49.5,48.9,0.00,North,0,0.0,0.0,98,0.08,,,-99.99,pyweather 0.1,2013-01-08 23:42:00,
2013-01-08 15:50:00,49.6,49.1,0.00,North,0,0.0,0.0,98,0.08,,,-99.99,pyweather 0.1,2013-01-08 23:50:00,
2013-01-08 15:58:00,49.6,49.1,0.00,North,0,0.0,0.0,98,0.08,,,-99.99,pyweather 0.1,2013-01-08 23:58:00,
2013-01-08 16:06:00,49.8,49.3,0.00,North,0,0.0,0.0,98,0.04,,,-99.99,pyweather 0.1,2013-01-09 00:06:00,
2013-01-08 16:14:00,49.8,49.3,0.00,North,0,0.0,0.0,98,0.04,,,-99.99,pyweather 0.1,2013-01-09 00:14:00,
2013-01-08 16:22:00,49.8,49.3,0.00,North,0,0.0,0.0,98,0.00,,,-99.99,pyweather 0.1,2013-01-09 00:22:00,
2013-01-08 16:30:00,50.0,49.5,0.00,North,0,0.0,0.0,98,0.00,,,-99.99,pyweather 0.1,2013-01-09 00:30:00,
2013-01-08 16:38:00,50.2,49.6,0.00,North,0,0.0,0.0,98,0.00,,,-99.99,pyweather 0.1,2013-01-09 00:38:00,
2013-01-08 16:46:00,50.2,49.6,0.00,North,0,0.0,0.0,98,0.00,,,-99.99,pyweather 0.1,2013-01-09 00:46:00,
2013-01-08 16:54:00,50.4,49.8,0.00,North,0,0.0,0.0,98,0.00,,,-99.99,pyweather 0.1,2013-01-09 00:54:00,
2013-01-08 17:02:00,50.4,49.8,0.00,North,0,0.0,0.0,98,0.00,,,-99.99,pyweather 0.1,2013-01-09 01:02:00,
2013-01-08 17:10:00,50.4,49.8,0.00,North,0,0.0,0.0,98,0.00,,,-99.99,pyweather 0.1,2013-01-09 01:10:00,
2013-01-08 17:18:00,50.5,50.0,0.00,North,0,0.0,0.0,98,0.04,,,-99.99,pyweather 0.1,2013-01-09 01:18:00,
2013-01-08 17:26:00,50.5,50.0,0.00,North,0,0.0,0.0,98,0.04,,,-99.99,pyweather 0.1,2013-01-09 01:26:00,
2013-01-08 17:34:00,50.5,50.0,0.00,North,0,0.0,0.0,98,0.04,,,-99.99,pyweather 0.1,2013-01-09 01:34:00,
2013-01-08 17:42:00,50.5,50.0,0.00,North,0,0.0,0.0,98,0.04,,,-99.99,pyweather 0.1,2013-01-09 01:42:00,
2013-01-08 17:50:00,50.5,50.0,0.00,North,0,0.0,0.0,98,0.04,,,-99.99,pyweather 0.1,2013-01-09 01:50:00,
2013-01-08 17:58:00,50.4,49.8,0.00,North,0,0.0,0.0,98,0.04,,,-99.99,pyweather 0.1,2013-01-09 01:58:00,
2013-01-08 18:06:00,50.4,49.8,0.00,North,0,0.0,0.0,98,0.08,,,-99.99,pyweather 0.1,2013-01-09 02:06:00,
2013-01-08 18:14:00,50.4,49.8,0.00,North,0,0.0,0.0,98,0.04,,,-99.99,pyweather 0.1,2013-01-09 02:14:00,
2013-01-08 18:22:00,50.2,49.6,0.00,North,0,0.0,0.0,98,0.04,,,-99.99,pyweather 0.1,2013-01-09 02:22:00,
2013-01-08 18:31:00,50.2,49.6,0.00,North,0,0.0,0.0,98,0.04,,,-99.99,pyweather 0.1,2013-01-09 02:31:00,
2013-01-08 18:39:00,50.2,49.6,0.00,North,0,0.0,0.0,98,0.04,,,-99.99,pyweather 0.1,2013-01-09 02:39:00,
2013-01-08 18:47:00,50.2,49.6,0.00,North,0,0.0,0.0,98,0.04,,,-99.99,pyweather 0.1,2013-01-09 02:47:00,
2013-01-08 18:55:00,50.4,49.8,0.00,North,0,0.0,0.0,98,0.04,,,-99.99,pyweather 0.1,2013-01-09 02:55:00,
2013-01-08 19:03:00,50.4,49.8,0.00,North,0,0.0,0.0,98,0.00,,,-99.99,pyweather 0.1,2013-01-09 03:03:00,
2013-01-08 19:11:00,50.4,49.8,0.00,North,0,0.0,0.0,98,0.00,,,-99.99,pyweather 0.1,2013-01-09 03:11:00,
2013-01-08 19:19:00,50.4,49.8,0.00,North,0,0.0,0.0,98,0.00,,,-99.99,pyweather 0.1,2013-01-09 03:19:00,
2013-01-08 19:27:00,50.4,49.8,0.00,North,0,0.0,0.0,98,0.00,,,-99.99,pyweather 0.1,2013-01-09 03:27:00,
2013-01-08 19:35:00,50.5,50.0,0.00,North,0,0.0,0.0,98,0.00,,,-99.99,pyweather 0.1,2013-01-09 03:35:00,
2013-01-08 19:43:00,50.7,50.2,0.00,North,0,0.0,0.0,98,0.00,,,-99.99,pyweather 0.1,2013-01-09 03:43:00,
2013-01-08 19:51:00,50.7,50.2,0.00,North,0,0.0,0.0,98,0.00,,,-99.99,pyweather 0.1,2013-01-09 03:51:00,
2013-01-08 19:59:00,50.7,50.2,0.00,North,0,0.0,0.0,98,0.00,,,-99.99,pyweather 0.1,2013-01-09 03:59:00,
2013-01-08 20:07:00,50.9,50.4,0.00,North,0,0.0,0.0,98,0.00,,,-99.99,pyweather 0.1,2013-01-09 04:07:00,
2013-01-08 20:15:00,50.7,50.2,0.00,North,0,0.0,0.0,98,0.00,,,-99.99,pyweather 0.1,2013-01-09 04:15:00,
2013-01-08 20:23:00,50.7,50.2,0.00,North,0,0.0,0.0,98,0.00,,,-99.99,pyweather 0.1,2013-01-09 04:23:00,
2013-01-08 20:31:00,50.7,50.2,0.00,North,0,0.0,0.0,98,0.00,,,-99.99,pyweather 0.1,2013-01-09 04:31:00,
2013-01-08 20:39:00,50.5,50.0,0.00,North,0,0.0,0.0,98,0.00,,,-99.99,pyweather 0.1,2013-01-09 04:39:00,
2013-01-08 20:47:00,50.7,50.2,0.00,North,0,0.0,0.0,98,0.00,,,-99.99,pyweather 0.1,2013-01-09 04:47:00,
2013-01-08 20:55:00,50.7,50.2,0.00,North,0,0.0,0.0,98,0.00,,,-99.99,pyweather 0.1,2013-01-09 04:55:00,
2013-01-08 21:03:00,50.7,49.9,0.00,North,0,0.0,0.0,97,0.00,,,-99.99,pyweather 0.1,2013-01-09 05:03:00,
2013-01-08 21:11:00,50.9,50.1,0.00,North,0,0.0,0.0,97,0.00,,,-99.99,pyweather 0.1,2013-01-09 05:11:00,
2013-01-08 21:20:00,50.7,49.6,0.00,North,0,0.0,0.0,96,0.00,,,-99.99,pyweather 0.1,2013-01-09 05:20:00,
2013-01-08 21:28:00,50.7,49.6,0.00,North,0,0.0,0.0,96,0.00,,,-99.99,pyweather 0.1,2013-01-09 05:28:00,
2013-01-08 21:36:00,50.5,49.2,0.00,North,0,0.0,0.0,95,0.00,,,-99.99,pyweather 0.1,2013-01-09 05:36:00,
2013-01-08 21:44:00,50.5,49.2,0.00,North,0,0.0,0.0,95,0.04,,,-99.99,pyweather 0.1,2013-01-09 05:44:00,
2013-01-08 21:52:00,50.4,48.7,0.00,North,0,0.0,0.0,94,0.04,,,-99.99,pyweather 0.1,2013-01-09 05:52:00,
2013-01-08 22:00:00,50.4,49.0,0.00,North,0,0.0,0.0,95,0.04,,,-99.99,pyweather 0.1,2013-01-09 06:00:00,
2013-01-08 22:08:00,50.2,48.8,0.00,North,0,0.0,0.0,95,0.04,,,-99.99,pyweather 0.1,2013-01-09 06:08:00,
2013-01-08 22:16:00,50.2,48.8,0.00,North,0,0.0,0.0,95,0.04,,,-99.99,pyweather 0.1,2013-01-09 06:16:00,
2013-01-08 22:24:00,50.0,48.6,0.00,North,0,0.0,0.0,95,0.04,,,-99.99,pyweather 0.1,2013-01-09 06:24:00,
2013-01-08 22:32:00,49.8,48.7,0.00,North,0,0.0,0.0,96,0.08,,,-99.99,pyweather 0.1,2013-01-09 06:32:00,
2013-01-08 22:40:00,49.8,48.7,0.00,North,0,0.0,0.0,96,0.04,,,-99.99,pyweather 0.1,2013-01-09 06:40:00,
2013-01-08 22:48:00,49.8,49.0,0.00,North,0,0.0,0.0,97,0.04,,,-99.99,pyweather 0.1,2013-01-09 06:48:00,
2013-01-08 22:56:00,49.6,48.8,0.00,North,0,0.0,0.0,97,0.04,,,-99.99,pyweather 0.1,2013-01-09 06:56:00,
2013-01-08 23:04:00,49.6,48.8,0.00,North,0,0.0,0.0,97,0.04,,,-99.99,pyweather 0.1,2013-01-09 07:04:00,
2013-01-08 23:12:00,49.6,48.8,0.00,North,0,0.0,0.0,97,0.04,,,-99.99,pyweather 0.1,2013-01-09 07:12:00,
2013-01-08 23:20:00,49.6,49.1,0.00,North,0,0.0,0.0,98,0.08,,,-99.99,pyweather 0.1,2013-01-09 07:20:00,
2013-01-08 23:28:00,49.5,48.9,0.00,North,0,0.0,0.0,98,0.04,,,-99.99,pyweather 0.1,2013-01-09 07:28:00,
2013-01-08 23:36:00,49.6,49.1,0.00,North,0,0.0,0.0,98,0.04,,,-99.99,pyweather 0.1,2013-01-09 07:36:00,
2013-01-08 23:44:00,49.6,49.1,0.00,North,0,0.0,0.0,98,0.04,,,-99.99,pyweather 0.1,2013-01-09 07:44:00,
2013-01-08 23:52:00,49.6,49.1,0.00,North,0,0.0,0.0,98,0.04,,,-99.99,pyweather 0.1,2013-01-09 07:52:00,